Stations météo

réclame
Mon MeteoGroup
Leeuwarden, Pays-Bas (6270): Température de l'air & dewpoint: 15.06.2018 12:00:00 - 21.06.2018 12:00:00 (CEST)Leeuwarden, Pays-Bas (6270): Température de l'air 5cm: 15.06.2018 12:00:00 - 21.06.2018 12:00:00 (CEST)Leeuwarden, Pays-Bas (6270): Vitesse du vent & gusts: 15.06.2018 12:00:00 - 21.06.2018 12:00:00 (CEST)Leeuwarden, Pays-Bas (6270): Direction du vent: 15.06.2018 12:00:00 - 21.06.2018 12:00:00 (CEST)Leeuwarden, Pays-Bas (6270): reduced air pressure: 15.06.2018 12:00:00 - 21.06.2018 12:00:00 (CEST)Leeuwarden, Pays-Bas (6270): visibility: 15.06.2018 12:00:00 - 21.06.2018 12:00:00 (CEST)Leeuwarden, Pays-Bas (6270): Quantités de précipitations: 15.06.2018 12:00:00 - 21.06.2018 12:00:00 (CEST)
Date & Time tt [°C] td [°C] tt 5cm [°C] ff [km/h] ff [knt] fx [km/h] fx [knt] dd ppp [hPa] vv [km] rr [mm]
21.06.2018 12:00:00 13,5 6,9 13,5 41 22 58 31 WNW 1017,0 10 0,0
21.06.2018 11:00:00 13,4 8,1 13,1 41 22 68 37 NW 1016,3 10 0,0
21.06.2018 10:00:00 14,5 7,9 14,8 35 19 58 31 WNW 1015,3 10 0,0
21.06.2018 09:00:00 13,3 9,4 12,7 28 15 43 23 WNW 1014,7 10 0,1
21.06.2018 08:00:00 13,6 10,0 13,4 22 12 36 19 WNW 1014,3 10 0,0
21.06.2018 07:00:00 13,4 10,8 13,0 13 7 25 14 WNW 1014,3 10 0,0
21.06.2018 06:00:00 13,3 11,2 12,9 15 8 25 14 NW 1014,5 10 0,0
21.06.2018 05:00:00 13,8 12,5 13,5 11 6 18 10 NW 1014,6 10 0,0
21.06.2018 04:00:00 14,1 13,3 13,8 9 5 14 8 NW 1014,6 10 0,0
21.06.2018 03:00:00 14,5 14,0 14,4 8 4 18 10 NW 1014,9 10 1,6
21.06.2018 02:00:00 15,1 14,4 15,0 13 7 22 12 NW 1015,2 9 0,0
21.06.2018 01:00:00 16,0 15,5 15,9 11 6 18 10 W 1015,5 8 0,6
21.06.2018 00:00:00 16,3 15,7 16,1 15 8 22 12 W 1015,8 7 0,3
20.06.2018 23:00:00 17,3 15,4 17,1 15 8 25 14 WSW 1016,2 10 0,0
20.06.2018 22:00:00 17,9 15,4 17,7 21 11 32 18 WSW 1016,4 10 0,0
20.06.2018 21:00:00 18,5 15,5 18,3 18 10 36 19 WSW 1016,3 10 0,0
20.06.2018 20:00:00 19,2 15,3 19,6 22 12 32 18 SW 1016,6 10 0,0
20.06.2018 19:00:00 18,9 15,1 19,4 28 15 40 21 WSW 1017,4 10 0,0
20.06.2018 18:00:00 18,8 15,0 19,8 31 17 47 25 WSW 1017,9 10 0,0
20.06.2018 17:00:00 18,6 14,9 20,0 35 19 47 25 WSW 1018,4 10 0,0
20.06.2018 16:00:00 20,1 15,5 21,1 31 17 47 25 SW 1018,5 10 0,0
20.06.2018 15:00:00 20,1 16,1 21,2 31 17 50 27 SW 1018,4 10 0,0
20.06.2018 14:00:00 19,1 16,3 19,6 29 16 43 23 SW 1018,9 10 0,0
20.06.2018 13:00:00 18,1 16,3 18,7 26 14 40 21 SSW 1019,3 9 0,0
20.06.2018 12:00:00 18,6 16,2 19,1 24 13 36 19 SW 1019,9 9 0,0
20.06.2018 11:00:00 18,8 16,5 19,2 21 11 36 19 SSW 1019,8 6 0,0
20.06.2018 10:00:00 18,3 16,3 19,0 22 12 32 18 SW 1020,1 7 0,0
20.06.2018 09:00:00 17,9 16,2 18,7 22 12 32 18 SW 1020,0 7 0,0
20.06.2018 08:00:00 17,8 15,9 18,1 21 11 32 18 SW 1020,1 10 0,0
20.06.2018 07:00:00 17,6 15,8 17,4 18 10 29 16 SSW 1020,1 10 0,0
20.06.2018 06:00:00 17,0 15,5 16,6 16 9 25 14 SSW 1020,4 10 0,0
20.06.2018 05:00:00 16,9 15,4 16,6 15 8 22 12 SSW 1020,6 10 0,0
20.06.2018 04:00:00 16,2 15,1 15,4 15 8 25 14 SSW 1020,9 10 0,0
20.06.2018 03:00:00 15,9 14,7 15,4 15 8 25 14 SSW 1021,2 10 0,0
20.06.2018 02:00:00 16,5 14,7 15,8 13 7 22 12 SSW 1021,9 10 0,0
20.06.2018 01:00:00 17,2 15,1 16,9 11 6 18 10 SSW 1022,1 10 0,0
20.06.2018 00:00:00 17,1 14,7 16,8 8 4 11 6 SSW 1022,6 10 0,0
19.06.2018 23:00:00 17,4 14,6 17,1 8 4 14 8 SSW 1022,9 10 0,0
19.06.2018 22:00:00 17,4 14,3 16,6 5 3 14 8 S 1022,7 10 0,0
19.06.2018 21:00:00 18,1 14,1 17,9 13 7 25 14 WSW 1022,7 10 0,0
19.06.2018 20:00:00 18,8 13,6 18,9 15 8 25 14 WSW 1022,8 10 0,0
19.06.2018 19:00:00 19,3 13,2 19,8 15 8 22 12 WSW 1023,0 10 0,0
19.06.2018 18:00:00 19,2 12,3 20,1 11 6 22 12 W 1023,0 40 0,0
19.06.2018 17:00:00 19,4 12,5 20,2 18 10 32 18 W 1023,2 10 0,0
19.06.2018 16:00:00 20,7 11,9 22,1 18 10 32 18 W 1023,0 10 0,0
19.06.2018 15:00:00 20,2 12,8 23,0 18 10 32 18 W 1023,0 10 0,0
19.06.2018 14:00:00 20,2 11,8 22,3 22 12 36 19 WNW 1022,8 10 0,0
19.06.2018 13:00:00 19,4 12,5 21,4 15 8 29 16 WNW 1022,3 10 0,0
19.06.2018 12:00:00 18,3 14,7 19,7 16 9 22 12 W 1022,0 10 0,0
19.06.2018 11:00:00 17,7 14,8 18,7 13 7 29 16 W 1021,4 10 0,0
19.06.2018 10:00:00 17,1 15,4 17,4 21 11 29 16 W 1021,2 10 0,0
19.06.2018 09:00:00 17,2 16,1 17,5 15 8 32 18 W 1020,1 10 0,2
19.06.2018 08:00:00 16,8 16,0 16,8 18 10 32 18 W 1019,5 9 0,0
19.06.2018 07:00:00 17,2 15,8 17,0 21 11 32 18 W 1018,9 10 0,0
19.06.2018 06:00:00 16,5 15,7 16,3 13 7 22 12 WSW 1018,5 6 0,1
19.06.2018 05:00:00 16,5 14,8 16,2 14 8 22 12 SW 1018,3 12 0,0
19.06.2018 04:00:00 16,3 14,3 16,0 14 8 25 14 SW 1017,8 14 0,0
19.06.2018 03:00:00 16,3 13,8 16,0 18 10 29 16 SW 1017,8 16 0,0
19.06.2018 02:00:00 16,3 13,5 16,0 18 10 32 18 SW 1017,9 20 0,0
19.06.2018 01:00:00 16,1 13,2 15,7 22 12 32 18 SW 1017,7 10 0,0
19.06.2018 00:00:00 16,1 13,1 15,7 18 10 32 18 SSW 1018,2 10 0,0
18.06.2018 23:00:00 15,8 13,5 15,4 15 8 29 16 SW 1018,7 10 0,0
18.06.2018 22:00:00 15,8 13,2 15,2 15 8 25 14 SW 1018,4 10 0,0
18.06.2018 21:00:00 16,7 13,8 16,3 18 10 32 18 WSW 1018,2 10 0,0
18.06.2018 20:00:00 17,4 13,5 17,5 22 12 43 23 WSW 1018,1 10 0,0
18.06.2018 19:00:00 16,9 13,6 17,0 29 16 43 23 WSW 1018,0 10 0,0
18.06.2018 18:00:00 17,4 13,8 17,6 28 15 40 21 WSW 1017,8 10 0,0
18.06.2018 17:00:00 16,4 15,1 16,6 22 12 40 21 WSW 1018,2 5 0,0
18.06.2018 16:00:00 18,3 14,3 18,9 26 14 40 21 WSW 1018,0 5 0,0
18.06.2018 15:00:00 18,6 15,0 19,3 29 16 40 21 WSW 1017,8 10 0,0
18.06.2018 14:00:00 17,8 14,9 18,3 26 14 36 19 WSW 1017,7 10 0,0
18.06.2018 13:00:00 17,6 15,2 18,1 26 14 36 19 WSW 1017,7 10 0,0
18.06.2018 12:00:00 16,9 15,8 17,1 21 11 32 18 SW 1017,5 6 0,2
18.06.2018 11:00:00 16,1 15,6 16,2 22 12 36 19 WSW 1017,1 2,4 0,5
18.06.2018 10:00:00 15,9 15,3 16,2 18 10 32 18 SW 1016,8 4,7 0,1
18.06.2018 09:00:00 15,5 14,9 15,4 21 11 29 16 SW 1016,6 2,5 0,1
18.06.2018 08:00:00 15,0 14,6 15,0 13 7 22 12 SSW 1016,3 4,0 0,2
18.06.2018 07:00:00 14,6 13,8 14,5 15 8 25 14 SSW 1016,6 9 0,0
18.06.2018 06:00:00 14,5 13,5 14,3 11 6 22 12 SSW 1016,7 10 0,0
18.06.2018 05:00:00 14,4 13,0 14,2 13 7 22 12 SSW 1016,6 7 0,0
18.06.2018 04:00:00 14,7 12,5 14,3 9 5 22 12 S 1016,6 10 0,0
18.06.2018 03:00:00 14,3 12,1 13,6 11 6 18 10 SSW 1017,1 10 0,0
18.06.2018 02:00:00 13,7 12,0 13,2 13 7 18 10 SSW 1017,2 10 0,0
18.06.2018 01:00:00 14,5 11,8 13,9 11 6 18 10 SSW 1017,5 10 0,0
18.06.2018 00:00:00 14,6 11,4 14,1 9 5 14 8 S 1017,6 10 0,0
17.06.2018 23:00:00 14,8 11,4 14,2 9 5 14 8 SW 1017,7 10 0,0
17.06.2018 22:00:00 14,7 11,5 14,3 13 7 22 12 WSW 1017,7 10 0,0
17.06.2018 21:00:00 15,7 11,4 15,3 16 9 36 19 WSW 1017,3 10 0,0
17.06.2018 20:00:00 16,4 11,2 16,6 18 10 36 19 WSW 1017,1 10 0,0
17.06.2018 19:00:00 16,8 11,0 17,3 22 12 36 19 WSW 1016,9 10 0,0
17.06.2018 18:00:00 16,6 10,7 17,1 26 14 36 19 WSW 1016,9 10 0,0
17.06.2018 17:00:00 17,5 10,8 18,9 28 15 40 21 WSW 1016,7 10 0,0
17.06.2018 16:00:00 18,2 10,6 19,6 28 15 43 23 WSW 1016,3 10 0,0
17.06.2018 15:00:00 18,0 11,1 18,9 31 17 43 23 WSW 1016,2 10 0,0
17.06.2018 14:00:00 17,7 11,3 19,7 29 16 43 23 WSW 1015,7 10 0,0
17.06.2018 13:00:00 18,2 11,4 18,8 29 16 43 23 WSW 1015,2 10 0,0
17.06.2018 12:00:00 16,9 11,0 17,6 24 13 32 18 WSW 1014,8 10 0,0
17.06.2018 11:00:00 17,1 11,1 17,7 21 11 29 16 WSW 1014,4 10 0,0
17.06.2018 10:00:00 16,6 10,8 17,4 16 9 25 14 WSW 1014,0 10 0,0
17.06.2018 09:00:00 15,9 11,7 16,3 18 10 29 16 WSW 1013,5 10 0,0
17.06.2018 08:00:00 15,7 13,2 15,7 16 9 29 16 SW 1012,9 10 0,0
17.06.2018 07:00:00 15,3 13,7 15,0 15 8 22 12 SW 1012,7 10 0,0
17.06.2018 06:00:00 14,7 12,9 14,4 16 9 25 14 SW 1012,5 10 0,0
17.06.2018 05:00:00 14,7 12,3 14,3 16 9 29 16 SW 1012,6 10 0,0
17.06.2018 04:00:00 14,5 12,9 14,0 15 8 22 12 SSW 1012,7 10 0,0
17.06.2018 03:00:00 13,0 12,0 12,4 13 7 22 12 SSW 1012,9 10 0,0
17.06.2018 02:00:00 12,7 10,7 11,9 13 7 18 10 S 1013,2 10 0,0
17.06.2018 01:00:00 12,4 10,4 11,4 9 5 14 8 SSW 1013,3 10 0,0
17.06.2018 00:00:00 12,7 10,0 11,7 9 5 22 12 SSW 1013,6 10 0,0
16.06.2018 23:00:00 14,1 9,5 13,0 11 6 18 10 SSW 1013,8 10 0,0
16.06.2018 22:00:00 15,0 10,7 14,1 9 5 14 8 SW 1013,6 10 0,0
16.06.2018 21:00:00 16,5 10,8 16,1 11 6 22 12 SW 1013,5 10 0,0
16.06.2018 20:00:00 17,4 10,1 17,3 15 8 29 16 WSW 1013,6 10 0,0
16.06.2018 19:00:00 17,9 12,4 18,0 21 11 32 18 WSW 1013,7 10 0,0
16.06.2018 18:00:00 18,4 13,1 18,6 26 14 36 19 WSW 1013,5 10 0,0
16.06.2018 17:00:00 18,8 14,2 20,3 22 12 29 16 W 1013,4 10 0,0
16.06.2018 16:00:00 19,9 10,3 20,4 18 10 32 18 SW 1013,4 10 0,0
16.06.2018 15:00:00 19,5 12,7 20,8 15 8 29 16 WSW 1013,3 10 0,0
16.06.2018 14:00:00 20,4 13,0 22,0 16 9 25 14 SW 1013,7 10 0,0
16.06.2018 13:00:00 19,2 11,7 20,1 16 9 29 16 SW 1014,0 10 0,0
16.06.2018 12:00:00 19,7 11,9 20,8 15 8 25 14 SW 1014,3 10 0,0
16.06.2018 11:00:00 18,8 12,7 19,6 13 7 25 14 WSW 1014,1 10 0,0
16.06.2018 10:00:00 18,6 14,1 19,0 11 6 18 10 SSW 1014,0 10 0,0
16.06.2018 09:00:00 18,0 13,5 18,6 5 3 11 6 SSW 1014,1 10 0,0
16.06.2018 08:00:00 16,2 13,5 15,9 2 1 4 2 SE 1014,0 10 0,0
16.06.2018 07:00:00 13,9 12,4 13,5 4 2 7 4 ENE 1014,0 17 0,0
16.06.2018 06:00:00 12,3 11,3 11,0 7 4 7 4 E 1014,2 17 0,0
16.06.2018 05:00:00 12,5 11,3 11,1 0 0 4 2 N 1014,6 21 0,0
16.06.2018 04:00:00 13,5 11,1 12,3 0 0 4 2 N 1015,0 25 0,0
16.06.2018 03:00:00 13,6 11,2 13,1 4 2 7 4 NNE 1015,2 23 0,0
16.06.2018 02:00:00 14,6 10,5 13,6 4 2 11 6 ENE 1015,4 30 0,0
16.06.2018 01:00:00 14,8 11,1 13,3 7 4 11 6 E 1015,6 27 0,0
16.06.2018 00:00:00 14,6 11,5 12,1 8 4 11 6 NE 1015,8 10 0,0
15.06.2018 23:00:00 15,3 11,7 13,7 5 3 11 6 NE 1016,0 10 0,0
15.06.2018 22:00:00 14,6 11,2 12,8 8 4 11 6 N 1016,1 10 0,0
15.06.2018 21:00:00 16,6 12,1 16,4 8 4 11 6 NNE 1016,3 10 0,0
15.06.2018 20:00:00 19,6 10,2 19,8 8 4 14 8 N 1016,3 10 0,0
15.06.2018 19:00:00 19,8 10,8 20,5 9 5 18 10 N 1016,4 10 0,0
15.06.2018 18:00:00 19,8 11,2 20,4 8 4 14 8 N 1016,5 10 0,0
15.06.2018 17:00:00 20,3 11,1 22,0 11 6 18 10 NNW 1016,5 10 0,0
15.06.2018 16:00:00 19,4 11,6 19,2 15 8 25 14 NW 1016,7 10 0,0
15.06.2018 15:00:00 20,7 10,9 22,9 11 6 18 10 WNW 1016,6 10 0,0
15.06.2018 14:00:00 19,8 11,8 19,5 9 5 14 8 NNW 1016,7 10 0,0
15.06.2018 13:00:00 19,5 9,6 20,0 4 2 14 8 - 1016,9 36 0,0
15.06.2018 12:00:00 20,1 8,7 22,5 5 3 14 8 S 1016,8 10 0,0

tt = Température de l'air
td = dewpoint
tt 5cm = Température de l'air 5cm
ff = Vitesse du vent
fx = gusts
dd = Direction du vent
ppp = reduced air pressure
vv = visibility
rr = Quantités de précipitations

stations d'obs. à proximité